Regional Weather Roundup
Issued by NWS

Home | Current Version | Previous Version | Graphics & Text | Print | Product List | Glossary On
Versions: 1 2 3 4 5 6 7 8 9 10 11 12 13 14 15 16 17 18 19 20 21 22 23 24 25 26 27 28 29 30 31 32 33 34 35 36 37 38 39 40 41 42 43 44 45 46 47 48 49 50
000
ASUS43 KLOT 261900
RWRIL

ILLINOIS REGIONAL WEATHER ROUNDUP
NATIONAL WEATHER SERVICE CHICAGO/ROMEOVILLE IL
100 PM CST WED NOV 26 2014

NOTE: "FAIR" INDICATES FEW OR NO CLOUDS BELOW 12,000 FEET WITH NO
SIGNIFICANT WEATHER AND/OR OBSTRUCTIONS TO VISIBILITY.

* THESE STATIONS ARE NOT UNDER NWS QUALITY CONTROL. THEY ALSO MAY NOT
  REPORT WEATHER SUCH AS PRECIPITATION OR FOG.

ILZ001-002-007-009-015-016-024-262000-
NORTHWEST ILLINOIS

CITY           SKY/WX    TMP DP  RH WIND       PRES   REMARKS
MOLINE         CLOUDY    29  24  82 E15       30.05F WCI  18
STERLING*      CLOUDY    28  21  74 SE12      30.08S WCI  18
$$

ILZ003-004-008-010-011-017-018-262000-
NORTH CENTRAL ILLINOIS

CITY           SKY/WX    TMP DP  RH WIND       PRES   REMARKS
ROCKFORD       CLOUDY    26  19  74 SE5       30.12F WCI  20
$$

ILZ005-006-012>014-019>023-262000-
NORTHEAST ILLINOIS

CITY           SKY/WX    TMP DP  RH WIND       PRES   REMARKS
CHICAGO-OHARE  CLOUDY    28  21  75 E8        30.10F WCI  20
CHICAGO-MIDWAY CLOUDY    28  20  71 E6        30.12S WCI  22
AURORA         CLOUDY    27  18  69 E8        30.11F WCI  19
WAUKEGAN       CLOUDY    28  22  78 CALM      30.10F HAZE
DUPAGE AIRPORT CLOUDY    27  18  69 E5        30.09F WCI  22
WHEELING       CLOUDY    29  21  72 E5        30.12F WCI  24
NORTHERLY ISL    N/A     27  21  78 SE7         N/A  WCI  20
$$

LMZ740>746-262000-
SOUTHERN LAKE MICHIGAN

STATION/POSITION SKY/WX   TEMP    WIND        PRES    VSBY  WAVE
                          AIR SEA DIR/SP/G                  HT/PER
                          (F)     (DEG/KT/KT) (MB)    (MI)  (FT/S)
SOUTHERN BUOY              30 42  170/ 10/ 12 1021.1F         1/ 3
WAUKEGAN HARBOR            28        CALM       N/A
HARRISON CRIB              26     160/  9/ 14   N/A
BURNHAM HARBOR             27     130/  7/ 11   N/A
CALUMET HARBOR             26     100/  5/  7 1018.7F
MICHIGAN CITY              26     140/  7/ 11   N/A
$$

ILZ025>027-034>036-040-047-049-050-058-095>099-262000-
WEST-CENTRAL ILLINOIS

CITY           SKY/WX    TMP DP  RH WIND       PRES   REMARKS
QUINCY         SNOW      31  30  96 SE8       29.95S VSB 1/4 WCI  23
$$

ILZ028>032-037-038-041>044-048-051>054-059>061-262000-
CENTRAL ILLINOIS

CITY           SKY/WX    TMP DP  RH WIND       PRES   REMARKS
DECATUR        CLOUDY    29  26  89 E13       30.05F FOG     WCI  19
PEORIA         CLOUDY    32  25  75 E12       30.06S WCI  23
SPRINGFIELD    LGT SNOW  33  29  85 SE13      30.02F VSB 1   WCI  24
TAYLORVILLE    NOT AVBL
$$

ILZ033-039-045-046-055>057-062-063-262000-
EAST-CENTRAL ILLINOIS

CITY           SKY/WX    TMP DP  RH WIND       PRES   REMARKS
CHAMPAIGN      CLOUDY    28  24  85 E9        30.07F WCI  19
MATTOON        CLOUDY    29  24  82 E6        30.05F WCI  23
$$

ILZ079-100>102-262000-
SOUTHWEST ILLINOIS

CITY           SKY/WX    TMP DP  RH WIND       PRES   REMARKS
ALTON          LGT SNOW  34  30  86 E9        29.99F WCI  26
BELLEVILLE     MIX PCPN  36  32  87 E10       29.99F WCI  28
CAHOKIA*       LGT SNOW  35  31  85 SE8       29.98F VSB 3/4 WCI  29
$$

ILZ064>066-069>071-074>076-080>082-084>086-088>090-092>094-262000-
SOUTH-CENTRAL ILLINOIS

CITY           SKY/WX    TMP DP  RH WIND       PRES   REMARKS
CARBONDALE     CLOUDY    40  28  62 SE13      30.00F
MT. VERNON     CLOUDY    37  28  70 E8        30.01F WCI  31
$$

ILZ067-068-072-073-078-083-087-091-262000-
SOUTHEAST ILLINOIS

CITY           SKY/WX    TMP DP  RH WIND       PRES   REMARKS
LAWRENCEVILLE  MOSUNNY   37  28  70 E8        30.06F WCI  31
$$

ABBREVIATIONS USED IN REMARKS
   TC - TEMPERATURE IN CELSIUS
  WCI - WIND CHILL INDEX
   HX - HEAT INDEX
  VSB - VISIBILITY
$$



USA.gov is the U.S. government's official web portal to all federal, state and local government web resources and services.